| time (UTC) | temp F | wind direction | speed knots | gust knots | rain 1hr in | rain 24hr in | rain mn in | humidity % | barometer mb |
| 20260831074939 | 65 | 275 | 7.8 | 18.2 | 0.00 | 0.09 | 0.08 | 78 | 1009.3 |
| 20260831074439 | 65 | 226 | 8.7 | 19.1 | 0.00 | 0.09 | 0.08 | 77 | 1009.3 |
| 20260831073939 | 65 | 221 | 11.3 | 19.1 | 0.00 | 0.09 | 0.08 | 77 | 1009.3 |
| 20260831073438 | 65 | 251 | 8.7 | 17.4 | 0.00 | 0.09 | 0.08 | 78 | 1009.3 |
| 20260831072940 | 65 | 258 | 10.4 | 17.4 | 0.00 | 0.09 | 0.08 | 78 | 1009.2 |
| 20260831072438 | 64 | 235 | 9.6 | 15.6 | 0.00 | 0.09 | 0.08 | 78 | 1009.3 |
| 20260831071940 | 64 | 190 | 8.7 | 17.4 | 0.00 | 0.09 | 0.08 | 79 | 1009.2 |
| 20260831071438 | 64 | 228 | 8.7 | 20.9 | 0.00 | 0.09 | 0.08 | 78 | 1009.2 |
| 20260831070940 | 64 | 226 | 13.0 | 20.9 | 0.00 | 0.09 | 0.08 | 78 | 1009.2 |
| 20260831070827 | 64 | 217 | 9.6 | 19.1 | 0.00 | 0.09 | 0.08 | 79 | 1009.4 |
| 20260831070326 | 64 | 240 | 11.3 | 17.4 | 0.00 | 0.09 | 0.08 | 79 | 1009.4 |
| 20260831065438 | 63 | 240 | 8.7 | 17.4 | 0.00 | 0.09 | 0.08 | 79 | 1009.2 |
| 20260831064938 | 63 | 186 | 10.4 | 17.4 | 0.00 | 0.09 | 0.08 | 79 | 1009.3 |
| 20260831064438 | 63 | 206 | 11.3 | 15.6 | 0.00 | 0.09 | 0.08 | 79 | 1009.3 |
| 20260831063938 | 63 | 226 | 7.0 | 14.8 | 0.00 | 0.09 | 0.08 | 79 | 1009.2 |
| 20260831063436 | 64 | 212 | 10.4 | 14.8 | 0.00 | 0.09 | 0.08 | 79 | 1009.3 |
| 20260831062938 | 64 | 182 | 6.1 | 17.4 | 0.00 | 0.09 | 0.08 | 78 | 1009.3 |
| 20260831062437 | 64 | 234 | 7.8 | 17.4 | 0.00 | 0.09 | 0.08 | 78 | 1009.4 |
| 20260831061938 | 64 | 216 | 8.7 | 15.6 | 0.00 | 0.09 | 0.08 | 79 | 1009.3 |
| 20260831061438 | 64 | 178 | 8.7 | 15.6 | 0.00 | 0.09 | 0.08 | 79 | 1009.3 |
| 20260831060936 | 64 | 219 | 7.8 | 18.2 | 0.00 | 0.09 | 0.08 | 80 | 1009.4 |
| 20260831060436 | 63 | 199 | 14.8 | 18.2 | 0.00 | 0.09 | 0.08 | 80 | 1009.3 |
| 20260831055936 | 63 | 199 | 9.6 | 14.8 | 0.00 | 0.09 | 0.08 | 80 | 1009.0 |
| 20260831055434 | 63 | 224 | 10.4 | 14.8 | 0.00 | 0.09 | 0.08 | 81 | 1009.2 |
| 20260831055324 | 62 | 230 | 9.6 | 15.6 | 0.00 | 0.09 | 0.08 | 81 | 1009.0 |
| 20260831054435 | 62 | 226 | 9.6 | 15.6 | 0.00 | 0.09 | 0.08 | 82 | 1009.0 |
| 20260831053936 | 62 | 213 | 9.6 | 13.9 | 0.00 | 0.09 | 0.08 | 81 | 1009.2 |
| 20260831053435 | 62 | 199 | 8.7 | 13.9 | 0.00 | 0.09 | 0.08 | 82 | 1009.2 |
| 20260831052935 | 62 | 234 | 7.8 | 14.8 | 0.00 | 0.09 | 0.08 | 82 | 1009.1 |
| 20260831052434 | 62 | 202 | 7.8 | 14.8 | 0.00 | 0.09 | 0.08 | 83 | 1009.1 |
| 20260831051934 | 62 | 182 | 9.6 | 13.0 | 0.00 | 0.09 | 0.08 | 83 | 1009.1 |
| 20260831051433 | 62 | 204 | 7.0 | 13.0 | 0.00 | 0.09 | 0.08 | 83 | 1009.0 |
| 20260831050933 | 62 | 209 | 5.2 | 16.5 | 0.00 | 0.09 | 0.08 | 83 | 1009.1 |
| 20260831050437 | 62 | 182 | 10.4 | 18.2 | 0.00 | 0.09 | 0.08 | 83 | 1009.1 |
| 20260831045937 | 62 | 214 | 8.7 | 18.2 | 0.00 | 0.09 | 0.08 | 84 | 1009.2 |
| 20260831045438 | 62 | 223 | 7.8 | 12.2 | 0.00 | 0.09 | 0.08 | 84 | 1009.2 |
| 20260831045313 | 61 | 207 | 6.1 | 12.2 | 0.00 | 0.09 | 0.08 | 84 | 1009.0 |
| 20260831044811 | 62 | 219 | 5.2 | 13.0 | 0.00 | 0.09 | 0.08 | 84 | 1009.1 |
| 20260831043938 | 61 | 196 | 7.8 | 13.0 | 0.00 | 0.09 | 0.08 | 84 | 1009.0 |
| 20260831043435 | 61 | 190 | 5.2 | 11.3 | 0.00 | 0.09 | 0.08 | 84 | 1009.1 |
| 20260831042933 | 61 | 219 | 5.2 | 9.6 | 0.00 | 0.09 | 0.08 | 85 | 1009.1 |
| 20260831042436 | 61 | 224 | 5.2 | 8.7 | 0.00 | 0.09 | 0.08 | 85 | 1009.0 |
| 20260831041934 | 61 | 217 | 5.2 | 9.6 | 0.00 | 0.09 | 0.08 | 85 | 1009.1 |
| 20260831041805 | 61 | 210 | 5.2 | 9.6 | 0.00 | 0.09 | 0.08 | 85 | 1009.0 |
| 20260831040936 | 61 | 233 | 5.2 | 10.4 | 0.00 | 0.09 | 0.08 | 85 | 1009.0 |
| 20260831040804 | 61 | 216 | 4.3 | 11.3 | 0.00 | 0.09 | 0.08 | 85 | 1009.2 |
| 20260831035933 | 61 | 192 | 7.0 | 11.3 | 0.00 | 0.09 | 0.08 | 85 | 1009.2 |
| 20260831035433 | 61 | 200 | 7.0 | 11.3 | 0.00 | 0.09 | 0.08 | 85 | 1009.2 |
| 20260831034934 | 61 | 210 | 4.3 | 13.9 | 0.00 | 0.09 | 0.08 | 85 | 1009.3 |
| 20260831034433 | 61 | 210 | 6.1 | 13.9 | 0.00 | 0.09 | 0.08 | 85 | 1009.3 |
| 20260831033931 | 62 | 210 | 7.0 | 11.3 | 0.00 | 0.09 | 0.08 | 85 | 1009.3 |
| 20260831033432 | 62 | 190 | 7.8 | 11.3 | 0.00 | 0.09 | 0.08 | 85 | 1009.4 |
| 20260831032933 | 62 | 228 | 7.8 | 11.3 | 0.00 | 0.09 | 0.08 | 85 | 1009.5 |
| 20260831032707 | 62 | 230 | 4.3 | 10.4 | 0.00 | 0.09 | 0.08 | 86 | 1009.4 |
| 20260831032558 | 62 | 183 | 6.1 | 11.3 | 0.00 | 0.09 | 0.08 | 86 | 1009.3 |
| 20260831031432 | 61 | 254 | 6.1 | 11.3 | 0.00 | 0.09 | 0.08 | 86 | 1009.4 |
| 20260831030944 | 61 | 241 | 4.3 | 13.0 | 0.01 | 0.09 | 0.08 | 86 | 1009.3 |
| 20260831030433 | 61 | 213 | 6.1 | 13.0 | 0.01 | 0.09 | 0.08 | 86 | 1009.3 |
| 20260831025932 | 61 | 221 | 7.0 | 13.0 | 0.01 | 0.09 | 0.08 | 86 | 1009.4 |
| 20260831025432 | 61 | 223 | 7.0 | 11.3 | 0.01 | 0.09 | 0.08 | 87 | 1009.4 |
| 20260831025309 | 61 | 231 | 5.2 | 9.6 | 0.01 | 0.09 | 0.08 | 87 | 1009.4 |
| 20260831024434 | 61 | 213 | 4.3 | 9.6 | 0.01 | 0.09 | 0.08 | 87 | 1009.4 |
| 20260831023933 | 61 | 274 | 5.2 | 9.6 | 0.01 | 0.09 | 0.08 | 87 | 1009.4 |
| 20260831023432 | 61 | 219 | 4.3 | 8.7 | 0.01 | 0.09 | 0.08 | 87 | 1009.4 |
| 20260831022931 | 61 | 206 | 4.3 | 8.7 | 0.01 | 0.09 | 0.08 | 88 | 1009.3 |
| 20260831022431 | 61 | 240 | 4.3 | 10.4 | 0.01 | 0.09 | 0.08 | 88 | 1009.2 |
| 20260831021931 | 61 | 212 | 6.1 | 10.4 | 0.01 | 0.09 | 0.08 | 88 | 1009.2 |
| 20260831021431 | 61 | 199 | 4.3 | 10.4 | 0.01 | 0.09 | 0.08 | 88 | 1009.2 |
| 20260831021307 | 61 | 206 | 5.2 | 8.7 | 0.00 | 0.09 | 0.07 | 88 | 1009.3 |
| 20260831020431 | 61 | 234 | 5.2 | 7.8 | 0.00 | 0.09 | 0.07 | 88 | 1009.2 |
| 20260831015932 | 61 | 221 | 3.5 | 7.8 | 0.00 | 0.09 | 0.07 | 88 | 1009.2 |
| 20260831015431 | 61 | 259 | 4.3 | 7.8 | 0.00 | 0.09 | 0.07 | 88 | 1009.3 |
| 20260831014934 | 61 | 216 | 3.5 | 6.1 | 0.00 | 0.09 | 0.07 | 88 | 1009.1 |
| 20260831014430 | 61 | 226 | 3.5 | 6.1 | 0.00 | 0.09 | 0.07 | 88 | 1009.1 |
| 20260831013930 | 61 | 238 | 4.3 | 7.8 | 0.00 | 0.09 | 0.07 | 88 | 1009.2 |
| 20260831013430 | 61 | 192 | 4.3 | 7.8 | 0.07 | 0.09 | 0.07 | 88 | 1009.2 |
| 20260831012932 | 62 | 216 | 4.3 | 6.1 | 0.07 | 0.09 | 0.07 | 88 | 1009.3 |
| 20260831012430 | 62 | 223 | 3.5 | 8.7 | 0.07 | 0.09 | 0.07 | 88 | 1009.4 |
| 20260831011930 | 62 | 203 | 4.3 | 8.7 | 0.07 | 0.09 | 0.07 | 88 | 1009.4 |
| 20260831011431 | 62 | 238 | 4.3 | 8.7 | 0.07 | 0.09 | 0.07 | 88 | 1009.4 |
| 20260831011313 | 62 | 258 | 4.3 | 11.3 | 0.07 | 0.09 | 0.07 | 88 | 1009.5 |
| 20260831010430 | 62 | 240 | 6.1 | 11.3 | 0.07 | 0.09 | 0.07 | 87 | 1009.5 |
| 20260831005929 | 62 | 206 | 5.2 | 10.4 | 0.07 | 0.02 | 0.07 | 87 | 1009.5 |
| 20260831005431 | 62 | 220 | 5.2 | 11.3 | 0.07 | 0.02 | 0.07 | 87 | 1009.5 |
| 20260831004930 | 63 | 190 | 6.1 | 11.3 | 0.07 | 0.02 | 0.07 | 88 | 1009.6 |
| 20260831004428 | 63 | 210 | 7.0 | 12.2 | 0.07 | 0.02 | 0.07 | 88 | 1009.6 |
| 20260831003928 | 63 | 220 | 7.0 | 12.2 | 0.07 | 0.02 | 0.07 | 87 | 1009.7 |
| 20260831003430 | 63 | 230 | 5.2 | 9.6 | 0.00 | 0.02 | 0.00 | 87 | 1009.7 |
| 20260831002929 | 62 | 235 | 5.2 | 9.6 | 0.00 | 0.02 | 0.00 | 87 | 1009.6 |
| 20260831002429 | 62 | 240 | 3.5 | 5.2 | 0.00 | 0.02 | 0.00 | 87 | 1009.4 |
| 20260831001927 | 62 | 210 | 2.6 | 5.2 | 0.00 | 0.02 | 0.00 | 87 | 1009.6 |
| 20260831001427 | 62 | 216 | 3.5 | 5.2 | 0.00 | 0.02 | 0.00 | 87 | 1009.7 |
| 20260831000930 | 62 | 195 | 2.6 | 3.5 | 0.00 | 0.02 | 0.00 | 86 | 1009.5 |
| 20260831000427 | 62 | 202 | 2.6 | 3.5 | 0.00 | 0.02 | 0.00 | 86 | 1009.6 |
| 20260830235928 | 62 | 200 | 1.7 | 2.6 | 0.00 | 0.02 | 0.00 | 86 | 1009.6 |
| 20260830235441 | 62 | 200 | 1.7 | 2.6 | 0.00 | 0.02 | 0.00 | 86 | 1009.6 |
| 20260830234927 | 62 | 200 | 0.9 | 2.6 | 0.00 | 0.02 | 0.00 | 86 | 1009.7 |
| 20260830234428 | 0 | 200 | 1.7 | 3.5 | 0.00 | 0.02 | 0.00 | 1009.8 | |
| 20260830233926 | 62 | 197 | 2.6 | 3.5 | 0.00 | 0.02 | 0.00 | 85 | 1009.9 |
| 20260830233426 | 62 | 196 | 1.7 | 4.3 | 0.00 | 0.02 | 0.00 | 85 | 1009.8 |
| 20260830232926 | 63 | 195 | 1.7 | 4.3 | 0.00 | 0.02 | 0.00 | 85 | 1009.8 |
| 20260830232426 | 63 | 159 | 0.9 | 4.3 | 0.00 | 0.02 | 0.00 | 85 | 1009.6 |
| 20260830231928 | 63 | 176 | 2.6 | 3.5 | 0.00 | 0.02 | 0.00 | 85 | 1009.5 |
| 20260830231918 | 63 | 178 | 2.6 | 4.3 | 0.00 | 0.02 | 0.00 | 85 | 1009.8 |
| 20260830231538 | 63 | 169 | 2.6 | 5.2 | 0.00 | 0.02 | 0.00 | 85 | 1009.8 |
| 20260830231500 | 63 | 180 | 2.6 | 5.2 | 0.00 | 0.02 | 0.00 | 85 | 1009.7 |
| 20260830225926 | 63 | 175 | 2.6 | 4.3 | 0.00 | 0.02 | 0.00 | 85 | 1009.7 |
| 20260830225815 | 63 | 180 | 1.7 | 4.3 | 0.00 | 0.02 | 0.00 | 85 | 1009.8 |
| 20260830224927 | 0 | 185 | 2.6 | 4.3 | 0.00 | 0.02 | 0.00 | 1009.9 | |
| 20260830224807 | 63 | 202 | 1.7 | 4.3 | 0.00 | 0.02 | 0.00 | 85 | 1009.9 |
| 20260830223928 | 63 | 196 | 2.6 | 4.3 | 0.00 | 0.02 | 0.00 | 85 | 1009.9 |
| 20260830223809 | 63 | 209 | 2.6 | 4.3 | 0.00 | 0.02 | 0.00 | 85 | 1009.9 |
| 20260830222926 | 63 | 180 | 2.6 | 4.3 | 0.00 | 0.02 | 0.00 | 85 | 1009.8 |
| 20260830222425 | 63 | 180 | 1.7 | 4.3 | 0.00 | 0.02 | 0.00 | 85 | 1009.9 |
| 20260830221925 | 63 | 190 | 2.6 | 3.5 | 0.00 | 0.02 | 0.00 | 85 | 1010.0 |
| 20260830221426 | 63 | 197 | 1.7 | 4.3 | 0.00 | 0.02 | 0.00 | 85 | 1009.9 |
| 20260830220925 | 63 | 182 | 2.6 | 5.2 | 0.00 | 0.02 | 0.00 | 85 | 1010.0 |
| 20260830220424 | 63 | 190 | 2.6 | 5.2 | 0.00 | 0.02 | 0.00 | 85 | 1010.0 |
| 20260830215924 | 63 | 185 | 2.6 | 4.3 | 0.00 | 0.02 | 0.02 | 85 | 1009.9 |
| 20260830215427 | 63 | 188 | 1.7 | 4.3 | 0.00 | 0.02 | 0.02 | 84 | 1010.0 |
| 20260830214925 | 0 | 161 | 2.6 | 4.3 | 0.00 | 0.02 | 0.02 | 1010.0 | |
| 20260830214801 | 63 | 173 | 2.6 | 4.3 | 0.00 | 0.02 | 0.02 | 84 | 1010.2 |
| 20260830213925 | 63 | 173 | 2.6 | 4.3 | 0.00 | 0.02 | 0.02 | 84 | 1010.2 |
| 20260830213811 | 63 | 178 | 1.7 | 3.5 | 0.00 | 0.02 | 0.02 | 84 | 1010.3 |
| 20260830212925 | 63 | 173 | 1.7 | 3.5 | 0.00 | 0.02 | 0.02 | 84 | 1010.4 |
| 20260830212425 | 64 | 169 | 0.0 | 4.3 | 0.00 | 0.02 | 0.02 | 84 | 1010.4 |
| 20260830212050 | 64 | 203 | 0.0 | 0.0 | 0.00 | 0.02 | 0.02 | 83 | 1010.4 |
| 20260830212041 | 64 | 202 | 0.0 | 0.0 | 0.00 | 0.02 | 0.02 | 83 | 1010.4 |
| 20260830212003 | 64 | 171 | 2.6 | 4.3 | 0.00 | 0.02 | 0.02 | 83 | 1010.4 |
| 20260830210423 | 64 | 203 | 0.0 | 0.0 | 0.00 | 0.02 | 0.02 | 82 | 1010.3 |
| 20260830205922 | 64 | 207 | 0.0 | 3.5 | 0.00 | 0.02 | 0.02 | 82 | 1010.4 |
| 20260830205805 | 64 | 212 | 0.9 | 4.3 | 0.00 | 0.02 | 0.02 | 82 | 1010.4 |
| 20260830204922 | 64 | 217 | 2.6 | 4.3 | 0.00 | 0.02 | 0.02 | 82 | 1010.4 |
| 20260830204424 | 64 | 178 | 1.7 | 5.2 | 0.00 | 0.02 | 0.02 | 82 | 1010.5 |
| 20260830203923 | 64 | 178 | 2.6 | 5.2 | 0.00 | 0.02 | 0.02 | 82 | 1010.4 |
| 20260830203422 | 64 | 193 | 2.6 | 4.3 | 0.00 | 0.13 | 0.02 | 82 | 1010.4 |
| 20260830203314 | 64 | 189 | 2.6 | 4.3 | 0.00 | 0.24 | 0.02 | 81 | 1010.6 |
| 20260830202424 | 65 | 183 | 2.6 | 4.3 | 0.00 | 0.24 | 0.02 | 81 | 1010.6 |
| 20260830201923 | 65 | 193 | 2.6 | 6.1 | 0.00 | 0.24 | 0.02 | 81 | 1010.7 |
| 20260830201424 | 65 | 209 | 3.5 | 6.1 | 0.00 | 0.24 | 0.02 | 81 | 1010.7 |
| 20260830200923 | 65 | 180 | 2.6 | 6.1 | 0.00 | 0.24 | 0.02 | 81 | 1010.6 |
| 20260830200424 | 65 | 195 | 2.6 | 6.1 | 0.00 | 0.24 | 0.02 | 80 | 1010.7 |
| 20260830200257 | 65 | 197 | 3.5 | 5.2 | 0.00 | 0.24 | 0.02 | 80 | 1010.6 |
| 20260830195422 | 65 | 158 | 2.6 | 5.2 | 0.00 | 0.24 | 0.02 | 80 | 1010.6 |
| 20260830194921 | 65 | 176 | 3.5 | 6.1 | 0.00 | 0.24 | 0.02 | 80 | 1010.7 |
| 20260830194423 | 65 | 164 | 3.5 | 7.8 | 0.01 | 0.24 | 0.02 | 80 | 1010.8 |
| 20260830194308 | 65 | 166 | 3.5 | 7.8 | 0.01 | 0.24 | 0.02 | 80 | 1010.9 |
| 20260830193421 | 65 | 199 | 4.3 | 7.8 | 0.01 | 0.25 | 0.02 | 80 | 1010.8 |
| 20260830192922 | 66 | 164 | 2.6 | 6.1 | 0.01 | 0.25 | 0.02 | 79 | 1010.7 |
| 20260830192421 | 66 | 154 | 3.5 | 7.8 | 0.01 | 0.25 | 0.02 | 79 | 1010.8 |
| 20260830192308 | 66 | 164 | 4.3 | 7.8 | 0.01 | 0.25 | 0.02 | 78 | 1010.7 |
| 20260830191808 | 67 | 165 | 4.3 | 7.8 | 0.01 | 0.25 | 0.02 | 78 | 1010.8 |
| 20260830190920 | 67 | 159 | 5.2 | 8.7 | 0.01 | 0.25 | 0.02 | 77 | 1010.9 |
| 20260830190420 | 67 | 165 | 5.2 | 9.6 | 0.01 | 0.25 | 0.02 | 77 | 1010.8 |
| 20260830185921 | 67 | 180 | 5.2 | 13.0 | 0.01 | 0.24 | 0.02 | 76 | 1010.8 |
| 20260830185419 | 67 | 178 | 4.3 | 13.0 | 0.01 | 0.24 | 0.02 | 75 | 1010.9 |
| 20260830184920 | 68 | 169 | 7.8 | 15.6 | 0.01 | 0.24 | 0.02 | 74 | 1011.0 |
| 20260830184421 | 68 | 202 | 7.8 | 15.6 | 0.00 | 0.24 | 0.01 | 72 | 1010.9 |
| 20260830183920 | 68 | 171 | 2.6 | 4.3 | 0.00 | 0.24 | 0.01 | 71 | 1010.8 |
| 20260830183548 | 68 | 192 | 1.7 | 3.5 | 0.00 | 0.24 | 0.01 | 71 | 1010.8 |
| 20260830183541 | 68 | 189 | 1.7 | 2.6 | 0.00 | 0.24 | 0.01 | 72 | 1010.9 |
| 20260830183500 | 68 | 183 | 2.6 | 3.5 | 0.00 | 0.24 | 0.01 | 71 | 1010.8 |
| 20260830181920 | 68 | 195 | 1.7 | 3.5 | 0.00 | 0.24 | 0.01 | 71 | 1010.9 |
| 20260830181419 | 69 | 197 | 1.7 | 2.6 | 0.00 | 0.24 | 0.01 | 70 | 1010.9 |
| 20260830180920 | 69 | 200 | 1.7 | 2.6 | 0.00 | 0.24 | 0.01 | 70 | 1010.9 |
| 20260830180418 | 69 | 202 | 0.0 | 0.0 | 0.00 | 0.24 | 0.01 | 69 | 1011.0 |
| 20260830175919 | 69 | 202 | 0.0 | 0.0 | 0.00 | 0.24 | 0.01 | 69 | 1011.0 |
| 20260830175418 | 69 | 202 | 0.0 | 2.6 | 0.00 | 0.24 | 0.01 | 69 | 1011.0 |
| 20260830175309 | 69 | 202 | 0.0 | 2.6 | 0.00 | 0.24 | 0.01 | 68 | 1011.1 |
| 20260830174704 | 70 | 202 | 1.7 | 4.3 | 0.00 | 0.24 | 0.01 | 67 | 1011.2 |
| 20260830174548 | 70 | 202 | 1.7 | 3.5 | 0.00 | 0.24 | 0.01 | 67 | 1011.1 |
| 20260830173808 | 70 | 202 | 1.7 | 4.3 | 0.00 | 0.24 | 0.01 | 66 | 1011.1 |
| 20260830172918 | 70 | 209 | 3.5 | 6.1 | 0.00 | 0.24 | 0.01 | 66 | 1011.2 |
| 20260830172418 | 70 | 200 | 3.5 | 7.8 | 0.00 | 0.24 | 0.01 | 65 | 1011.2 |
| 20260830171918 | 71 | 214 | 4.3 | 8.7 | 0.00 | 0.24 | 0.01 | 65 | 1011.2 |
| 20260830171416 | 71 | 213 | 5.2 | 8.7 | 0.00 | 0.24 | 0.01 | 64 | 1011.4 |
| 20260830170920 | 71 | 209 | 4.3 | 10.4 | 0.00 | 0.24 | 0.01 | 65 | 1011.3 |
| 20260830170505 | 72 | 213 | 5.2 | 9.6 | 0.00 | 0.24 | 0.01 | 62 | 1011.4 |
| 20260830170452 | 71 | 226 | 6.1 | 10.4 | 0.00 | 0.24 | 0.01 | 63 | 1011.4 |
| 20260830170445 | 71 | 204 | 6.1 | 9.6 | 0.00 | 0.24 | 0.01 | 63 | 1011.3 |
| 20260830170426 | 71 | 226 | 4.3 | 10.4 | 0.00 | 0.24 | 0.01 | 64 | 1011.3 |
| 20260830164416 | 72 | 213 | 5.2 | 10.4 | 0.00 | 0.24 | 0.01 | 62 | 1011.4 |
| 20260830164310 | 72 | 209 | 7.0 | 10.4 | 0.00 | 0.25 | 0.01 | 61 | 1011.4 |
| 20260830163416 | 72 | 212 | 6.1 | 9.6 | 0.00 | 0.25 | 0.01 | 60 | 1011.4 |
| 20260830162916 | 72 | 224 | 5.2 | 10.4 | 0.00 | 0.25 | 0.01 | 61 | 1011.3 |
| 20260830162803 | 72 | 206 | 6.1 | 14.8 | 0.00 | 0.28 | 0.01 | 59 | 1011.4 |
| 20260830162204 | 73 | 223 | 7.8 | 11.3 | 0.00 | 0.28 | 0.01 | 60 | 1011.5 |
| 20260830162045 | 72 | 196 | 5.2 | 14.8 | 0.00 | 0.28 | 0.01 | 58 | 1011.4 |
| 20260830160916 | 73 | 202 | 7.8 | 13.9 | 0.00 | 0.31 | 0.01 | 60 | 1011.5 |
| 20260830160416 | 73 | 231 | 7.8 | 13.9 | 0.00 | 0.34 | 0.01 | 60 | 1011.5 |
| 20260830155916 | 74 | 245 | 7.8 | 12.2 | 0.00 | 0.35 | 0.01 | 59 | 1011.5 |
| 20260830155416 | 74 | 219 | 7.0 | 12.2 | 0.00 | 0.36 | 0.01 | 59 | 1011.5 |
| 20260830154915 | 73 | 213 | 7.8 | 12.2 | 0.00 | 0.37 | 0.01 | 59 | 1011.6 |
| 20260830154758 | 73 | 199 | 7.0 | 11.3 | 0.00 | 0.37 | 0.01 | 61 | 1011.5 |
| 20260830153928 | 73 | 216 | 6.1 | 11.3 | 0.00 | 0.37 | 0.01 | 60 | 1011.6 |
| 20260830153414 | 73 | 231 | 3.5 | 13.0 | 0.00 | 0.37 | 0.01 | 61 | 1011.6 |
| 20260830152915 | 73 | 224 | 4.3 | 13.0 | 0.00 | 0.38 | 0.01 | 61 | 1011.7 |
| 20260830152414 | 74 | 231 | 7.0 | 13.0 | 0.00 | 0.38 | 0.01 | 62 | 1011.7 |
| 20260830151913 | 74 | 252 | 7.0 | 11.3 | 0.00 | 0.38 | 0.01 | 62 | 1011.6 |
| 20260830151413 | 73 | 230 | 7.0 | 11.3 | 0.00 | 0.38 | 0.01 | 63 | 1011.7 |
| 20260830150914 | 73 | 258 | 4.3 | 12.2 | 0.00 | 0.38 | 0.01 | 62 | 1011.7 |
| 20260830150412 | 73 | 199 | 7.0 | 12.2 | 0.00 | 0.38 | 0.01 | 61 | 1011.8 |
| 20260830145914 | 73 | 245 | 7.8 | 13.0 | 0.00 | 0.38 | 0.01 | 61 | 1011.7 |
| 20260830145414 | 73 | 243 | 6.1 | 13.0 | 0.00 | 0.38 | 0.01 | 63 | 1011.8 |
| 20260830145306 | 73 | 207 | 7.0 | 11.3 | 0.00 | 0.39 | 0.01 | 66 | 1011.8 |
| 20260830144415 | 72 | 243 | 3.5 | 6.1 | 0.00 | 0.39 | 0.01 | 67 | 1011.8 |
| 20260830144305 | 72 | 286 | 2.6 | 6.1 | 0.00 | 0.39 | 0.01 | 69 | 1011.9 |
| 20260830143802 | 71 | 281 | 3.5 | 8.7 | 0.00 | 0.39 | 0.01 | 70 | 1011.9 |
| 20260830142913 | 71 | 245 | 3.5 | 8.7 | 0.00 | 0.39 | 0.01 | 69 | 1012.0 |
| 20260830142413 | 71 | 288 | 4.3 | 8.7 | 0.00 | 0.39 | 0.01 | 70 | 1011.9 |
| 20260830141913 | 71 | 271 | 4.3 | 8.7 | 0.00 | 0.39 | 0.01 | 68 | 1012.0 |
| 20260830141412 | 71 | 238 | 4.3 | 6.1 | 0.00 | 0.39 | 0.01 | 67 | 1012.0 |
| 20260830140912 | 71 | 250 | 3.5 | 8.7 | 0.00 | 0.39 | 0.01 | 69 | 1012.0 |
| 20260830140411 | 71 | 210 | 4.3 | 11.3 | 0.00 | 0.39 | 0.01 | 68 | 1012.0 |
| 20260830135912 | 71 | 254 | 6.1 | 11.3 | 0.00 | 0.39 | 0.01 | 68 | 1012.2 |
| 20260830135412 | 71 | 258 | 3.5 | 6.1 | 0.00 | 0.39 | 0.01 | 71 | 1012.1 |
| 20260830134911 | 71 | 266 | 3.5 | 6.1 | 0.00 | 0.39 | 0.01 | 71 | 1012.3 |
| 20260830134804 | 71 | 241 | 4.3 | 6.1 | 0.00 | 0.39 | 0.01 | 69 | 1012.2 |
| 20260830133912 | 71 | 244 | 2.6 | 7.8 | 0.00 | 0.39 | 0.01 | 69 | 1012.2 |
| 20260830133412 | 71 | 272 | 5.2 | 9.6 | 0.00 | 0.39 | 0.01 | 68 | 1012.2 |
| 20260830132911 | 72 | 248 | 5.2 | 10.4 | 0.00 | 0.39 | 0.01 | 67 | 1012.4 |
| 20260830132412 | 72 | 259 | 7.8 | 13.0 | 0.00 | 0.39 | 0.01 | 67 | 1012.2 |
| 20260830131911 | 72 | 233 | 7.0 | 14.8 | 0.00 | 0.39 | 0.01 | 69 | 1012.3 |
| 20260830131411 | 73 | 217 | 7.8 | 14.8 | 0.00 | 0.39 | 0.01 | 66 | 1012.2 |
| 20260830130912 | 73 | 237 | 5.2 | 12.2 | 0.00 | 0.39 | 0.01 | 67 | 1012.3 |
| 20260830130411 | 73 | 219 | 6.1 | 10.4 | 0.00 | 0.39 | 0.01 | 66 | 1012.2 |
| 20260830125913 | 73 | 281 | 4.3 | 9.6 | 0.00 | 0.39 | 0.01 | 68 | 1012.3 |
| 20260830125411 | 71 | 210 | 6.1 | 9.6 | 0.00 | 0.39 | 0.01 | 70 | 1012.1 |
| 20260830124914 | 71 | 282 | 5.2 | 10.4 | 0.00 | 0.39 | 0.01 | 72 | 1012.3 |
| 20260830124413 | 70 | 235 | 4.3 | 15.6 | 0.00 | 0.39 | 0.01 | 72 | 1012.3 |
| 20260830123912 | 70 | 275 | 6.1 | 15.6 | 0.00 | 0.39 | 0.01 | 71 | 1012.4 |
| 20260830123412 | 70 | 254 | 9.6 | 13.9 | 0.00 | 0.39 | 0.01 | 71 | 1012.4 |
| 20260830122911 | 70 | 261 | 3.5 | 11.3 | 0.00 | 0.39 | 0.01 | 70 | 1012.3 |
| 20260830122410 | 70 | 250 | 6.1 | 10.4 | 0.00 | 0.39 | 0.01 | 70 | 1012.3 |
| 20260830121912 | 70 | 255 | 4.3 | 13.0 | 0.00 | 0.39 | 0.01 | 71 | 1012.2 |
| 20260830121410 | 70 | 243 | 7.8 | 13.0 | 0.00 | 0.39 | 0.01 | 70 | 1012.2 |
| 20260830120910 | 70 | 268 | 5.2 | 16.5 | 0.01 | 0.39 | 0.01 | 70 | 1012.2 |
| 20260830120410 | 71 | 257 | 6.1 | 16.5 | 0.01 | 0.39 | 0.01 | 70 | 1012.2 |
| 20260830120253 | 71 | 251 | 8.7 | 15.6 | 0.01 | 0.39 | 0.01 | 69 | 1012.0 |
| 20260830115409 | 71 | 262 | 7.0 | 13.9 | 0.01 | 0.39 | 0.01 | 71 | 1012.0 |
| 20260830114910 | 70 | 278 | 6.1 | 13.9 | 0.01 | 0.39 | 0.01 | 70 | 1012.1 |
| 20260830114407 | 70 | 247 | 5.2 | 13.0 | 0.01 | 0.39 | 0.01 | 71 | 1012.0 |
| 20260830113910 | 70 | 271 | 7.0 | 15.6 | 0.01 | 0.39 | 0.01 | 71 | 1011.9 |
| 20260830113409 | 70 | 214 | 7.8 | 15.6 | 0.01 | 0.39 | 0.01 | 71 | 1011.9 |
| 20260830112908 | 70 | 255 | 4.3 | 12.2 | 0.01 | 0.39 | 0.01 | 71 | 1012.0 |
| 20260830112410 | 70 | 259 | 7.0 | 12.2 | 0.01 | 0.39 | 0.01 | 71 | 1011.8 |
| 20260830111907 | 70 | 223 | 5.2 | 13.9 | 0.01 | 0.39 | 0.01 | 71 | 1011.9 |
| 20260830111407 | 70 | 238 | 7.8 | 13.9 | 0.01 | 0.39 | 0.01 | 73 | 1011.9 |
| 20260830110908 | 69 | 213 | 6.1 | 13.9 | 0.00 | 0.39 | 0.00 | 74 | 1011.8 |
| 20260830110746 | 69 | 282 | 7.0 | 13.9 | 0.00 | 0.39 | 0.00 | 75 | 1011.9 |
| 20260830110253 | 69 | 266 | 7.0 | 12.2 | 0.00 | 0.39 | 0.00 | 75 | 1011.8 |
| 20260830105750 | 68 | 262 | 7.8 | 12.2 | 0.00 | 0.39 | 0.00 | 76 | 1011.9 |
| 20260830104903 | 68 | 276 | 7.0 | 14.8 | 0.00 | 0.39 | 0.00 | 76 | 1011.8 |
| 20260830104404 | 68 | 196 | 7.8 | 17.4 | 0.00 | 0.39 | 0.00 | 76 | 1011.8 |
| 20260830103903 | 69 | 244 | 9.6 | 17.4 | 0.00 | 0.39 | 0.00 | 74 | 1011.9 |
| 20260830103403 | 70 | 261 | 7.8 | 12.2 | 0.00 | 0.39 | 0.00 | 73 | 1011.9 |
| 20260830102904 | 70 | 247 | 5.2 | 11.3 | 0.00 | 0.39 | 0.00 | 73 | 1011.8 |
| 20260830102748 | 69 | 275 | 4.3 | 11.3 | 0.00 | 0.39 | 0.00 | 76 | 1011.8 |
| 20260830101907 | 68 | 255 | 4.3 | 10.4 | 0.00 | 0.39 | 0.00 | 78 | 1011.7 |
| 20260830101405 | 68 | 265 | 4.3 | 13.0 | 0.00 | 0.39 | 0.00 | 78 | 1011.8 |
| 20260830100904 | 68 | 231 | 6.1 | 13.0 | 0.00 | 0.39 | 0.00 | 77 | 1011.7 |
| 20260830100404 | 68 | 241 | 7.8 | 13.0 | 0.00 | 0.39 | 0.00 | 77 | 1011.7 |
| 20260830095905 | 68 | 238 | 6.1 | 12.2 | 0.00 | 0.39 | 0.00 | 77 | 1011.8 |
| 20260830095408 | 68 | 264 | 6.1 | 12.2 | 0.00 | 0.39 | 0.00 | 79 | 1011.7 |
| 20260830094905 | 67 | 230 | 7.0 | 16.5 | 0.00 | 0.39 | 0.00 | 78 | 1011.7 |
| 20260830094404 | 67 | 247 | 9.6 | 16.5 | 0.00 | 0.39 | 0.00 | 79 | 1011.7 |
| 20260830094247 | 67 | 216 | 5.2 | 12.2 | 0.00 | 0.39 | 0.00 | 80 | 1011.6 |
| 20260830093404 | 66 | 213 | 4.3 | 13.0 | 0.00 | 0.39 | 0.00 | 80 | 1011.8 |
| 20260830092903 | 66 | 247 | 7.0 | 14.8 | 0.00 | 0.39 | 0.00 | 80 | 1011.7 |
| 20260830092745 | 66 | 235 | 7.8 | 14.8 | 0.00 | 0.39 | 0.00 | 80 | 1011.6 |
| 20260830091903 | 67 | 237 | 8.7 | 15.6 | 0.00 | 0.39 | 0.00 | 80 | 1011.6 |
| 20260830091403 | 67 | 254 | 9.6 | 15.6 | 0.00 | 0.39 | 0.00 | 80 | 1011.4 |
| 20260830090905 | 67 | 233 | 8.7 | 15.6 | 0.00 | 0.39 | 0.00 | 78 | 1011.6 |
| 20260830090402 | 67 | 228 | 9.6 | 16.5 | 0.00 | 0.39 | 0.00 | 77 | 1011.4 |
| 20260830085903 | 68 | 180 | 10.4 | 16.5 | 0.00 | 0.39 | 0.00 | 76 | 1011.3 |
| 20260830085404 | 68 | 228 | 5.2 | 18.2 | 0.00 | 0.39 | 0.00 | 78 | 1011.1 |
| 20260830084905 | 67 | 238 | 8.7 | 18.2 | 0.00 | 0.39 | 0.00 | 79 | 1010.9 |
| 20260830084403 | 67 | 257 | 8.7 | 17.4 | 0.00 | 0.39 | 0.00 | 78 | 1011.1 |
| 20260830083903 | 67 | 197 | 11.3 | 17.4 | 0.00 | 0.39 | 0.00 | 80 | 1011.0 |
| 20260830083403 | 66 | 235 | 8.7 | 16.5 | 0.00 | 0.39 | 0.00 | 80 | 1010.9 |
| 20260830082905 | 66 | 217 | 7.8 | 16.5 | 0.00 | 0.39 | 0.00 | 81 | 1011.0 |
| 20260830082406 | 65 | 257 | 7.0 | 14.8 | 0.00 | 0.39 | 0.00 | 81 | 1010.9 |
| 20260830081904 | 65 | 244 | 9.6 | 14.8 | 0.00 | 0.39 | 0.00 | 81 | 1010.8 |
| 20260830081406 | 65 | 241 | 8.7 | 13.9 | 0.00 | 0.39 | 0.00 | 82 | 1010.8 |
| 20260830080905 | 65 | 238 | 7.0 | 20.9 | 0.00 | 0.39 | 0.00 | 82 | 1010.9 |
| 20260830080415 | 64 | 202 | 9.6 | 20.9 | 0.00 | 0.39 | 0.00 | 83 | 1010.7 |
| 20260830075904 | 64 | 202 | 7.8 | 16.5 | 0.00 | 0.39 | 0.00 | 83 | 1010.6 |
| 20260830075404 | 64 | 245 | 7.0 | 15.6 | 0.00 | 0.39 | 0.00 | 83 | 1010.6 |